Time,TemperatureF,DewpointF,PressureIn,WindDirection,WindDirectionDegrees,WindSpeedMPH,WindSpeedGustMPH,Humidity,HourlyPrecipIn,Conditions,Clouds,dailyrainin,SoftwareType,DateUTC
2013-01-16 00:01:00,18.3,14.6,30.10,NW,315,0.0,0.0,85,0.00,RA,,0.00,WeatherDisplay:10.37,2013-01-16 06:01:00,
2013-01-16 00:06:00,18.5,15.0,30.10,NW,315,0.0,0.0,86,0.00,RA,,0.00,WeatherDisplay:10.37,2013-01-16 06:06:00,
2013-01-16 00:11:00,18.1,14.7,30.10,NW,315,0.0,0.0,86,0.00,FEW,,0.00,WeatherDisplay:10.37,2013-01-16 06:11:00,
2013-01-16 00:16:00,18.1,14.7,30.10,NW,315,0.0,0.0,86,0.00,FEW,,0.00,WeatherDisplay:10.37,2013-01-16 06:16:00,
2013-01-16 00:21:00,18.1,14.7,30.10,NW,315,0.0,0.0,86,0.00,FEW,,0.00,WeatherDisplay:10.37,2013-01-16 06:21:00,
2013-01-16 00:26:00,18.1,14.7,30.09,NW,315,0.0,0.0,86,0.00,FEW,,0.00,WeatherDisplay:10.37,2013-01-16 06:26:00,
2013-01-16 00:31:00,18.1,14.7,30.09,NW,315,0.0,0.0,86,0.00,FEW,,0.00,WeatherDisplay:10.37,2013-01-16 06:31:00,
2013-01-16 00:36:00,18.1,14.7,30.09,NW,315,0.0,0.0,86,0.00,FEW,,0.00,WeatherDisplay:10.37,2013-01-16 06:36:00,
2013-01-16 00:41:00,18.1,14.7,30.09,NW,315,0.0,0.0,86,0.00,FEW,,0.00,WeatherDisplay:10.37,2013-01-16 06:41:00,
2013-01-16 00:46:00,17.8,14.3,30.09,NW,315,0.0,0.0,86,0.00,FEW,,0.00,WeatherDisplay:10.37,2013-01-16 06:46:00,
2013-01-16 00:51:00,17.8,14.3,30.09,NW,315,0.0,0.0,86,0.00,FEW,,0.00,WeatherDisplay:10.37,2013-01-16 06:51:00,
2013-01-16 00:56:00,17.6,14.1,30.09,NW,315,0.0,0.0,86,0.00,FEW,,0.00,WeatherDisplay:10.37,2013-01-16 06:56:00,
2013-01-16 01:01:00,17.4,13.9,30.09,NW,315,0.0,0.0,86,0.00,FEW,,0.00,WeatherDisplay:10.37,2013-01-16 07:01:00,
2013-01-16 01:06:00,17.4,13.9,30.08,NW,315,0.0,0.0,86,0.00,FEW,,0.00,WeatherDisplay:10.37,2013-01-16 07:06:00,
2013-01-16 01:11:00,17.2,13.8,30.08,NW,315,0.0,0.0,86,0.00,FEW,,0.00,WeatherDisplay:10.37,2013-01-16 07:11:00,
2013-01-16 01:16:00,17.4,13.9,30.08,NW,315,0.0,0.0,86,0.00,FEW,,0.00,WeatherDisplay:10.37,2013-01-16 07:16:00,
2013-01-16 01:21:00,17.4,14.2,30.08,NW,315,0.0,0.0,87,0.00,FEW,,0.00,WeatherDisplay:10.37,2013-01-16 07:21:00,
2013-01-16 01:26:00,17.4,14.2,30.07,NW,315,0.0,0.0,87,0.00,FEW,,0.00,WeatherDisplay:10.37,2013-01-16 07:26:00,
2013-01-16 01:31:00,17.4,14.2,30.07,NW,315,0.0,0.0,87,0.00,FEW,,0.00,WeatherDisplay:10.37,2013-01-16 07:31:00,
2013-01-16 01:36:00,17.4,14.2,30.07,NW,315,0.0,0.0,87,0.00,FEW,,0.00,WeatherDisplay:10.37,2013-01-16 07:36:00,
2013-01-16 01:41:00,17.4,14.2,30.07,NW,315,0.0,0.0,87,0.00,FEW,,0.00,WeatherDisplay:10.37,2013-01-16 07:41:00,
2013-01-16 01:46:00,17.6,14.4,30.07,NW,315,0.0,0.0,87,0.00,FEW,,0.00,WeatherDisplay:10.37,2013-01-16 07:46:00,
2013-01-16 01:51:00,17.8,14.6,30.07,NW,315,0.0,0.0,87,0.00,FEW,,0.00,WeatherDisplay:10.37,2013-01-16 07:51:00,
2013-01-16 01:56:00,17.8,14.6,30.07,NW,315,0.0,0.0,87,0.00,FEW,,0.00,WeatherDisplay:10.37,2013-01-16 07:56:00,
2013-01-16 02:01:00,17.8,14.6,30.07,NW,315,0.0,0.0,87,0.00,FEW,,0.00,WeatherDisplay:10.37,2013-01-16 08:01:00,
2013-01-16 02:06:00,18.1,14.9,30.07,NW,315,0.0,0.0,87,0.00,FEW,,0.00,WeatherDisplay:10.37,2013-01-16 08:06:00,
2013-01-16 02:11:00,18.1,14.9,30.07,NW,315,0.0,0.0,87,0.00,FEW,,0.00,WeatherDisplay:10.37,2013-01-16 08:11:00,
2013-01-16 02:16:00,18.1,14.9,30.07,NW,315,0.0,0.0,87,0.00,FEW,,0.00,WeatherDisplay:10.37,2013-01-16 08:16:00,
2013-01-16 02:21:00,18.1,14.9,30.08,NW,315,0.0,0.0,87,0.00,FEW,,0.00,WeatherDisplay:10.37,2013-01-16 08:21:00,
2013-01-16 02:26:00,18.1,14.9,30.08,NW,315,0.0,0.0,87,0.00,FEW,,0.00,WeatherDisplay:10.37,2013-01-16 08:26:00,
2013-01-16 02:31:00,18.1,14.9,30.08,NW,315,0.0,0.0,87,0.00,FEW,,0.00,WeatherDisplay:10.37,2013-01-16 08:31:00,
2013-01-16 02:36:00,18.3,15.1,30.08,NW,315,0.0,0.0,87,0.00,FEW,,0.00,WeatherDisplay:10.37,2013-01-16 08:36:00,
2013-01-16 02:41:00,18.5,15.3,30.08,NW,315,0.0,0.0,87,0.00,FEW,,0.00,WeatherDisplay:10.37,2013-01-16 08:41:00,
2013-01-16 02:46:00,18.5,15.3,30.08,NW,315,0.0,0.0,87,0.00,FEW,,0.00,WeatherDisplay:10.37,2013-01-16 08:46:00,
2013-01-16 02:51:00,18.9,15.6,30.08,NW,315,0.0,0.0,87,0.00,FEW,,0.00,WeatherDisplay:10.37,2013-01-16 08:51:00,
2013-01-16 02:56:00,18.9,15.6,30.08,NW,315,0.0,0.0,87,0.00,FEW,,0.00,WeatherDisplay:10.37,2013-01-16 08:56:00,
2013-01-16 03:01:00,18.9,15.9,30.07,NW,315,0.0,0.0,88,0.00,FEW,,0.00,WeatherDisplay:10.37,2013-01-16 09:01:00,
2013-01-16 03:06:00,18.9,15.9,30.07,NW,315,0.0,0.0,88,0.00,FEW,,0.00,WeatherDisplay:10.37,2013-01-16 09:06:00,
2013-01-16 03:11:00,18.9,15.9,30.07,NW,315,0.0,0.0,88,0.00,FEW,,0.00,WeatherDisplay:10.37,2013-01-16 09:11:00,
2013-01-16 03:16:00,19.2,16.2,30.07,NW,315,0.0,0.0,88,0.00,FEW,,0.00,WeatherDisplay:10.37,2013-01-16 09:16:00,
2013-01-16 03:21:00,19.0,16.1,30.06,NW,315,0.0,0.0,88,0.00,FEW,,0.00,WeatherDisplay:10.37,2013-01-16 09:21:00,
2013-01-16 03:26:00,19.2,16.2,30.06,NW,315,0.0,0.0,88,0.00,FEW,,0.00,WeatherDisplay:10.37,2013-01-16 09:26:00,
2013-01-16 03:31:00,19.6,16.6,30.06,NW,315,0.0,0.0,88,0.00,FEW,,0.00,WeatherDisplay:10.37,2013-01-16 09:31:00,
2013-01-16 03:36:00,19.6,16.6,30.06,NW,315,0.0,0.0,88,0.00,FEW,,0.00,WeatherDisplay:10.37,2013-01-16 09:36:00,
2013-01-16 03:41:00,19.8,16.8,30.06,NW,315,0.0,0.0,88,0.00,FEW,,0.00,WeatherDisplay:10.37,2013-01-16 09:41:00,
2013-01-16 03:46:00,19.9,17.0,30.06,NW,315,0.0,0.0,88,0.00,FEW,,0.00,WeatherDisplay:10.37,2013-01-16 09:46:00,
2013-01-16 03:51:00,20.1,17.1,30.06,NW,315,0.0,0.0,88,0.00,FEW,,0.00,WeatherDisplay:10.37,2013-01-16 09:51:00,
2013-01-16 03:56:00,20.3,17.3,30.06,NW,315,0.0,0.0,88,0.00,FEW,,0.00,WeatherDisplay:10.37,2013-01-16 09:56:00,
2013-01-16 04:01:00,20.3,17.3,30.05,NW,315,0.0,0.0,88,0.00,FEW,,0.00,WeatherDisplay:10.37,2013-01-16 10:01:00,
2013-01-16 04:06:00,20.5,17.5,30.05,NW,315,0.0,0.0,88,0.00,FEW,,0.00,WeatherDisplay:10.37,2013-01-16 10:06:00,
2013-01-16 04:11:00,20.7,17.7,30.05,NW,315,0.0,0.0,88,0.00,FEW,,0.00,WeatherDisplay:10.37,2013-01-16 10:11:00,
2013-01-16 04:16:00,20.7,17.7,30.05,NW,315,0.0,0.0,88,0.00,FEW,,0.00,WeatherDisplay:10.37,2013-01-16 10:16:00,
2013-01-16 04:21:00,20.7,17.7,30.03,NW,315,0.0,0.0,88,0.00,FEW,,0.00,WeatherDisplay:10.37,2013-01-16 10:21:00,
2013-01-16 04:26:00,20.7,17.7,30.03,NW,315,0.0,0.0,88,0.00,FEW,,0.00,WeatherDisplay:10.37,2013-01-16 10:26:00,
2013-01-16 04:31:00,20.7,17.7,30.03,NW,315,0.0,0.0,88,0.00,FEW,,0.00,WeatherDisplay:10.37,2013-01-16 10:31:00,
2013-01-16 04:36:00,20.5,17.5,30.03,NW,315,0.0,0.0,88,0.00,FEW,,0.00,WeatherDisplay:10.37,2013-01-16 10:36:00,
2013-01-16 04:41:00,20.3,17.3,30.02,NW,315,0.0,0.0,88,0.00,FEW,,0.00,WeatherDisplay:10.37,2013-01-16 10:41:00,
2013-01-16 04:46:00,20.3,17.3,30.02,NW,315,0.0,0.0,88,0.00,FEW,,0.00,WeatherDisplay:10.37,2013-01-16 10:46:00,
2013-01-16 04:51:00,19.9,16.7,30.02,NW,315,0.0,0.0,87,0.00,FEW,,0.00,WeatherDisplay:10.37,2013-01-16 10:51:00,
2013-01-16 04:56:00,19.8,16.5,30.02,NW,315,0.0,0.0,87,0.00,FEW,,0.00,WeatherDisplay:10.37,2013-01-16 10:56:00,
2013-01-16 05:01:00,19.6,16.3,30.01,NW,315,1.3,1.3,87,0.00,FEW,,0.00,WeatherDisplay:10.37,2013-01-16 11:01:00,
2013-01-16 05:06:00,19.6,16.3,30.01,NW,315,0.0,0.3,87,0.00,FEW,,0.00,WeatherDisplay:10.37,2013-01-16 11:06:00,
2013-01-16 05:11:00,19.2,16.0,30.01,NW,315,0.0,0.1,87,0.00,FEW,,0.00,WeatherDisplay:10.37,2013-01-16 11:11:00,
2013-01-16 05:16:00,19.2,16.0,30.01,NW,315,0.0,0.0,87,0.00,FEW,,0.00,WeatherDisplay:10.37,2013-01-16 11:16:00,
2013-01-16 05:21:00,18.9,15.6,30.00,NW,315,0.0,0.0,87,0.00,FEW,,0.00,WeatherDisplay:10.37,2013-01-16 11:21:00,
2013-01-16 05:26:00,18.9,15.6,30.00,NW,315,0.0,0.0,87,0.00,FEW,,0.00,WeatherDisplay:10.37,2013-01-16 11:26:00,
2013-01-16 05:31:00,18.5,15.3,30.00,NW,315,0.0,0.0,87,0.00,FEW,,0.00,WeatherDisplay:10.37,2013-01-16 11:31:00,
2013-01-16 05:36:00,18.3,15.1,30.00,NW,315,0.0,0.0,87,0.00,FEW,,0.00,WeatherDisplay:10.37,2013-01-16 11:36:00,
2013-01-16 05:41:00,18.1,14.9,30.00,NW,315,0.0,0.0,87,0.00,FEW,,0.00,WeatherDisplay:10.37,2013-01-16 11:41:00,
2013-01-16 05:46:00,18.1,14.9,30.00,NW,315,0.0,0.0,87,0.00,FEW,,0.00,WeatherDisplay:10.37,2013-01-16 11:46:00,
2013-01-16 05:51:00,18.1,14.9,30.00,NW,315,0.0,0.0,87,0.00,FEW,,0.00,WeatherDisplay:10.37,2013-01-16 11:51:00,
2013-01-16 05:56:00,17.8,14.6,30.00,NW,315,0.0,0.0,87,0.00,FEW,,0.00,WeatherDisplay:10.37,2013-01-16 11:56:00,
2013-01-16 06:01:00,17.6,14.4,30.00,NW,315,0.0,0.0,87,0.00,FEW,,0.00,WeatherDisplay:10.37,2013-01-16 12:01:00,
2013-01-16 06:06:00,17.4,14.2,30.00,NW,315,0.0,0.0,87,0.00,FEW,,0.00,WeatherDisplay:10.37,2013-01-16 12:06:00,
2013-01-16 06:11:00,17.4,14.2,30.00,NW,315,0.0,0.0,87,0.00,FEW,,0.00,WeatherDisplay:10.37,2013-01-16 12:11:00,
2013-01-16 06:16:00,17.4,14.2,30.00,NW,315,0.0,0.0,87,0.00,FEW,,0.00,WeatherDisplay:10.37,2013-01-16 12:16:00,
2013-01-16 06:21:00,17.2,14.0,29.99,NW,315,0.0,0.0,87,0.00,FEW,,0.00,WeatherDisplay:10.37,2013-01-16 12:21:00,
2013-01-16 06:26:00,17.4,14.2,29.99,NW,315,0.0,0.0,87,0.00,FEW,,0.00,WeatherDisplay:10.37,2013-01-16 12:26:00,
2013-01-16 06:31:00,17.1,13.9,29.99,NW,315,0.0,0.0,87,0.00,FEW,,0.00,WeatherDisplay:10.37,2013-01-16 12:31:00,
2013-01-16 06:36:00,17.1,13.9,29.99,NW,315,0.0,0.0,87,0.00,FEW,,0.00,WeatherDisplay:10.37,2013-01-16 12:36:00,
2013-01-16 06:41:00,16.9,13.7,30.01,NW,315,0.0,0.0,87,0.00,FEW,,0.00,WeatherDisplay:10.37,2013-01-16 12:41:00,
2013-01-16 06:46:00,16.9,13.7,30.01,NW,315,0.0,0.0,87,0.00,FEW,,0.00,WeatherDisplay:10.37,2013-01-16 12:46:00,
2013-01-16 06:51:00,16.7,13.5,30.01,NW,315,0.0,0.0,87,0.00,FEW,,0.00,WeatherDisplay:10.37,2013-01-16 12:51:00,
2013-01-16 06:56:00,16.7,13.5,30.01,NW,315,0.0,0.0,87,0.00,FEW,,0.00,WeatherDisplay:10.37,2013-01-16 12:56:00,
2013-01-16 07:01:00,16.7,13.5,30.00,NW,315,0.0,0.0,87,0.00,FEW,,0.00,WeatherDisplay:10.37,2013-01-16 13:01:00,
2013-01-16 07:06:00,16.7,13.5,30.00,NW,315,0.0,0.0,87,0.00,FEW,,0.00,WeatherDisplay:10.37,2013-01-16 13:06:00,
2013-01-16 07:11:00,16.7,13.8,30.00,NW,315,1.2,1.2,88,0.00,FEW,,0.00,WeatherDisplay:10.37,2013-01-16 13:11:00,
2013-01-16 07:16:00,16.7,13.8,30.00,NW,315,1.2,1.2,88,0.00,FEW,,0.00,WeatherDisplay:10.37,2013-01-16 13:16:00,
2013-01-16 07:21:00,16.7,13.8,29.99,NW,315,1.2,1.2,88,0.00,FEW,,0.00,WeatherDisplay:10.37,2013-01-16 13:21:00,
2013-01-16 07:26:00,16.9,13.9,29.99,NW,315,2.3,2.3,88,0.00,FEW,,0.00,WeatherDisplay:10.37,2013-01-16 13:26:00,
2013-01-16 07:31:00,16.9,13.9,29.99,NW,315,2.3,2.3,88,0.00,FEW,,0.00,WeatherDisplay:10.37,2013-01-16 13:31:00,
2013-01-16 07:36:00,17.1,14.1,29.99,NW,315,2.3,2.3,88,0.00,FEW,,0.00,WeatherDisplay:10.37,2013-01-16 13:36:00,
2013-01-16 07:41:00,17.2,14.3,29.99,NW,315,1.2,1.2,88,0.00,FEW,,0.00,WeatherDisplay:10.37,2013-01-16 13:41:00,
2013-01-16 07:46:00,17.4,14.5,29.99,NW,315,2.3,2.3,88,0.00,FEW,,0.00,WeatherDisplay:10.37,2013-01-16 13:46:00,
2013-01-16 07:51:00,17.6,14.7,29.99,NW,315,2.3,2.3,88,0.00,FEW,,0.00,WeatherDisplay:10.37,2013-01-16 13:51:00,
2013-01-16 07:56:00,18.1,15.4,29.99,NW,315,2.3,2.3,89,0.00,FEW,,0.00,WeatherDisplay:10.37,2013-01-16 13:56:00,
2013-01-16 08:01:00,18.1,15.4,29.99,NW,315,2.3,2.3,89,0.00,SKC,,0.00,WeatherDisplay:10.37,2013-01-16 14:01:00,
2013-01-16 08:06:00,18.9,16.2,29.99,NW,315,2.3,2.3,89,0.00,SKC,,0.00,WeatherDisplay:10.37,2013-01-16 14:06:00,
2013-01-16 08:11:00,19.2,16.5,29.99,NW,315,3.5,3.5,89,0.00,SKC,,0.00,WeatherDisplay:10.37,2013-01-16 14:11:00,
2013-01-16 08:16:00,19.6,16.9,29.99,NW,315,1.6,1.6,89,0.00,SKC,,0.00,WeatherDisplay:10.37,2013-01-16 14:16:00,
2013-01-16 08:21:00,20.1,17.4,30.00,NW,315,1.3,1.3,89,0.00,SKC,,0.00,WeatherDisplay:10.37,2013-01-16 14:21:00,
2013-01-16 08:26:00,21.0,18.5,30.00,NW,315,3.5,3.5,90,0.00,SKC,,0.00,WeatherDisplay:10.37,2013-01-16 14:26:00,
2013-01-16 08:31:00,21.2,18.7,30.00,NW,315,2.8,2.8,90,0.00,SKC,,0.00,WeatherDisplay:10.37,2013-01-16 14:31:00,
2013-01-16 08:36:00,21.7,19.3,30.00,NW,315,4.6,4.6,90,0.00,SKC,,0.00,WeatherDisplay:10.37,2013-01-16 14:36:00,
2013-01-16 08:41:00,22.1,19.6,30.01,NW,315,3.3,3.3,90,0.00,SKC,,0.00,WeatherDisplay:10.37,2013-01-16 14:41:00,
2013-01-16 08:46:00,22.6,20.1,30.01,NW,315,5.8,5.8,90,0.00,SKC,,0.00,WeatherDisplay:10.37,2013-01-16 14:46:00,
2013-01-16 08:51:00,23.2,20.7,30.01,NW,315,8.1,8.1,90,0.00,SKC,,0.00,WeatherDisplay:10.37,2013-01-16 14:51:00,
2013-01-16 08:56:00,23.9,21.4,30.01,NW,315,5.8,5.8,90,0.00,SKC,,0.00,WeatherDisplay:10.37,2013-01-16 14:56:00,
2013-01-16 09:01:00,24.4,21.7,30.01,NW,315,4.6,4.6,89,0.00,SKC,,0.00,WeatherDisplay:10.37,2013-01-16 15:01:00,
2013-01-16 09:06:00,25.3,22.6,30.01,NW,315,5.8,5.8,89,0.00,SKC,,0.00,WeatherDisplay:10.37,2013-01-16 15:06:00,
2013-01-16 09:11:00,25.5,22.7,30.01,NW,315,4.6,4.6,89,0.00,SKC,,0.00,WeatherDisplay:10.37,2013-01-16 15:11:00,
2013-01-16 09:16:00,26.4,23.3,30.01,NW,315,8.4,8.4,88,0.00,SKC,,0.00,WeatherDisplay:10.37,2013-01-16 15:16:00,
2013-01-16 09:21:00,26.8,23.7,30.00,NW,315,5.8,5.8,88,0.00,SKC,,0.00,WeatherDisplay:10.37,2013-01-16 15:21:00,
2013-01-16 09:26:00,27.5,23.9,30.00,NW,315,6.9,6.9,86,0.00,SKC,,0.00,WeatherDisplay:10.37,2013-01-16 15:26:00,
2013-01-16 09:31:00,27.9,23.9,30.00,NW,315,2.3,4.0,85,0.00,SKC,,0.00,WeatherDisplay:10.37,2013-01-16 15:31:00,
2013-01-16 09:36:00,27.9,23.7,30.00,NW,315,8.1,8.1,84,0.00,SKC,,0.00,WeatherDisplay:10.37,2013-01-16 15:36:00,
2013-01-16 09:41:00,27.9,23.4,30.02,NW,315,6.9,6.9,83,0.00,SKC,,0.00,WeatherDisplay:10.37,2013-01-16 15:41:00,
2013-01-16 09:46:00,28.0,23.0,30.02,NW,315,9.2,9.2,81,0.00,SKC,,0.00,WeatherDisplay:10.37,2013-01-16 15:46:00,
2013-01-16 09:51:00,28.4,23.0,30.02,NW,315,11.5,11.5,80,0.00,SKC,,0.00,WeatherDisplay:10.37,2013-01-16 15:51:00,
2013-01-16 09:56:00,28.6,22.6,30.02,NW,315,8.4,8.4,78,0.00,SKC,,0.00,WeatherDisplay:10.37,2013-01-16 15:56:00,
2013-01-16 10:01:00,28.6,22.3,30.00,NW,315,10.4,10.4,77,0.00,SKC,,0.00,WeatherDisplay:10.37,2013-01-16 16:01:00,
2013-01-16 10:06:00,28.9,22.3,30.00,NW,315,6.9,6.9,76,0.00,SKC,,0.00,WeatherDisplay:10.37,2013-01-16 16:06:00,
2013-01-16 10:11:00,29.1,22.5,30.00,NW,315,10.4,10.4,76,0.00,SKC,,0.00,WeatherDisplay:10.37,2013-01-16 16:11:00,
2013-01-16 10:16:00,29.7,22.1,30.00,NW,315,11.5,11.5,73,0.00,SKC,,0.00,WeatherDisplay:10.37,2013-01-16 16:16:00,
2013-01-16 10:21:00,30.0,22.1,30.00,NW,315,6.9,6.9,72,0.00,SKC,,0.00,WeatherDisplay:10.37,2013-01-16 16:21:00,
2013-01-16 10:26:00,30.4,22.1,30.00,NW,315,7.2,7.2,71,0.00,SKC,,0.00,WeatherDisplay:10.37,2013-01-16 16:26:00,
2013-01-16 10:31:00,30.7,22.1,30.00,NW,315,5.8,5.8,70,0.00,SKC,,0.00,WeatherDisplay:10.37,2013-01-16 16:31:00,
2013-01-16 10:36:00,31.5,21.8,30.00,NW,315,12.7,12.7,67,0.00,SKC,,0.00,WeatherDisplay:10.37,2013-01-16 16:36:00,
2013-01-16 10:41:00,31.8,22.5,29.99,NW,315,6.9,6.9,68,0.00,SKC,,0.00,WeatherDisplay:10.37,2013-01-16 16:41:00,
2013-01-16 10:46:00,32.4,22.3,29.99,NW,315,8.1,8.1,66,0.00,SKC,,0.00,WeatherDisplay:10.37,2013-01-16 16:46:00,
2013-01-16 10:51:00,32.7,22.6,29.99,NW,315,7.8,7.8,66,0.00,SKC,,0.00,WeatherDisplay:10.37,2013-01-16 16:51:00,
2013-01-16 10:56:00,32.9,22.0,29.99,NW,315,5.8,5.8,64,0.00,SKC,,0.00,WeatherDisplay:10.37,2013-01-16 16:56:00,
2013-01-16 11:01:00,32.9,21.7,30.00,NW,315,6.9,6.9,63,0.00,FEW,,0.00,WeatherDisplay:10.37,2013-01-16 17:01:00,
2013-01-16 11:06:00,33.4,22.2,30.00,NW,315,10.4,10.4,63,0.00,FEW,,0.00,WeatherDisplay:10.37,2013-01-16 17:06:00,
2013-01-16 11:11:00,33.8,22.5,30.00,NW,315,5.8,5.8,63,0.00,FEW,,0.00,WeatherDisplay:10.37,2013-01-16 17:11:00,
2013-01-16 11:16:00,34.2,22.1,30.00,NW,315,11.5,11.5,61,0.00,FEW,,0.00,WeatherDisplay:10.37,2013-01-16 17:16:00,
2013-01-16 11:21:00,34.0,21.9,30.00,NW,315,4.6,6.0,61,0.00,FEW,,0.00,WeatherDisplay:10.37,2013-01-16 17:21:00,
2013-01-16 11:26:00,34.0,21.5,30.00,NW,315,12.7,12.7,60,0.00,FEW,,0.00,WeatherDisplay:10.37,2013-01-16 17:26:00,
2013-01-16 11:31:00,34.2,21.7,30.00,NW,315,8.4,8.4,60,0.00,FEW,,0.00,WeatherDisplay:10.37,2013-01-16 17:31:00,
2013-01-16 11:36:00,34.3,22.3,30.00,SSE,158,11.5,11.5,61,0.00,FEW,,0.00,WeatherDisplay:10.37,2013-01-16 17:36:00,
2013-01-16 11:41:00,34.3,21.9,29.98,West,270,12.7,12.7,60,0.00,FEW,,0.00,WeatherDisplay:10.37,2013-01-16 17:41:00,
2013-01-16 11:46:00,34.9,22.8,29.98,SSW,202,8.1,8.1,61,0.00,FEW,,0.00,WeatherDisplay:10.37,2013-01-16 17:46:00,
2013-01-16 11:51:00,35.1,22.6,29.98,WSW,248,11.5,11.5,60,0.00,FEW,,0.00,WeatherDisplay:10.37,2013-01-16 17:51:00,
2013-01-16 11:56:00,34.9,22.8,29.98,South,180,6.9,7.0,61,0.00,FEW,,0.00,WeatherDisplay:10.37,2013-01-16 17:56:00,
2013-01-16 12:01:00,35.1,23.0,29.97,SSE,158,8.1,8.1,61,0.00,FEW,,0.00,WeatherDisplay:10.37,2013-01-16 18:01:00,
2013-01-16 12:06:00,35.1,23.0,29.97,SSE,158,7.2,7.2,61,0.00,FEW,,0.00,WeatherDisplay:10.37,2013-01-16 18:06:00,
2013-01-16 12:11:00,35.1,23.0,29.97,SSE,158,6.9,6.9,61,0.00,FEW,,0.00,WeatherDisplay:10.37,2013-01-16 18:11:00,
2013-01-16 12:16:00,35.6,23.1,29.97,WSW,248,9.2,9.2,60,0.00,FEW,,0.00,WeatherDisplay:10.37,2013-01-16 18:16:00,
2013-01-16 12:22:00,35.8,22.8,29.95,WSW,248,11.5,11.5,59,0.00,FEW,,0.00,WeatherDisplay:10.37,2013-01-16 18:22:00,
2013-01-16 12:27:00,35.8,23.2,29.95,WSW,248,9.2,9.2,60,0.00,FEW,,0.00,WeatherDisplay:10.37,2013-01-16 18:27:00,
2013-01-16 12:32:00,36.0,23.0,29.95,SSE,158,15.0,15.0,59,0.00,FEW,,0.00,WeatherDisplay:10.37,2013-01-16 18:32:00,
2013-01-16 12:37:00,36.9,24.3,29.95,SW,225,9.8,9.8,60,0.00,FEW,,0.00,WeatherDisplay:10.37,2013-01-16 18:37:00,
2013-01-16 12:42:00,36.9,23.9,29.95,South,180,7.9,7.9,59,0.00,FEW,,0.00,WeatherDisplay:10.37,2013-01-16 18:42:00,
2013-01-16 12:47:00,36.9,23.9,29.95,South,180,16.1,16.1,59,0.00,FEW,,0.00,WeatherDisplay:10.37,2013-01-16 18:47:00,
2013-01-16 12:52:00,36.7,23.7,29.95,South,180,13.8,13.8,59,0.00,FEW,,0.00,WeatherDisplay:10.37,2013-01-16 18:52:00,
2013-01-16 12:57:00,37.2,24.6,29.95,West,270,11.5,11.5,60,0.00,FEW,,0.00,WeatherDisplay:10.37,2013-01-16 18:57:00,
2013-01-16 13:02:00,37.2,24.6,29.94,South,180,12.7,12.7,60,0.00,SKC,,0.00,WeatherDisplay:10.37,2013-01-16 19:02:00,
2013-01-16 13:07:00,37.2,24.2,29.94,NW,315,15.0,15.0,59,0.00,SKC,,0.00,WeatherDisplay:10.37,2013-01-16 19:07:00,
2013-01-16 13:12:00,37.2,24.6,29.94,South,180,15.0,15.0,60,0.00,SKC,,0.00,WeatherDisplay:10.37,2013-01-16 19:12:00,
2013-01-16 13:17:00,37.4,24.4,29.94,WSW,248,12.7,12.7,59,0.00,SKC,,0.00,WeatherDisplay:10.37,2013-01-16 19:17:00,
2013-01-16 13:22:00,37.8,24.7,29.93,West,270,18.4,18.4,59,0.00,SKC,,0.00,WeatherDisplay:10.37,2013-01-16 19:22:00,
2013-01-16 13:27:00,37.6,24.5,29.93,SW,225,16.1,16.1,59,0.00,SKC,,0.00,WeatherDisplay:10.37,2013-01-16 19:27:00,
2013-01-16 13:32:00,37.6,24.5,29.93,NW,315,12.7,12.7,59,0.00,SKC,,0.00,WeatherDisplay:10.37,2013-01-16 19:32:00,
2013-01-16 13:37:00,37.9,25.3,29.93,SW,225,15.6,15.6,60,0.00,SKC,,0.00,WeatherDisplay:10.37,2013-01-16 19:37:00,
2013-01-16 13:42:00,37.8,25.5,29.93,South,180,9.2,9.2,61,0.00,SKC,,0.00,WeatherDisplay:10.37,2013-01-16 19:42:00,
2013-01-16 13:47:00,38.3,25.2,29.93,South,180,18.4,18.4,59,0.00,SKC,,0.00,WeatherDisplay:10.37,2013-01-16 19:47:00,
2013-01-16 13:52:00,38.3,25.6,29.93,South,180,8.2,8.2,60,0.00,SKC,,0.00,WeatherDisplay:10.37,2013-01-16 19:52:00,
2013-01-16 13:57:00,38.5,25.8,29.93,SW,225,10.7,10.7,60,0.00,SKC,,0.00,WeatherDisplay:10.37,2013-01-16 19:57:00,
2013-01-16 14:02:00,38.3,25.6,29.93,WSW,248,11.5,11.5,60,0.00,FEW,,0.00,WeatherDisplay:10.37,2013-01-16 20:02:00,
2013-01-16 14:07:00,38.5,25.8,29.93,West,270,4.6,5.8,60,0.00,FEW,,0.00,WeatherDisplay:10.37,2013-01-16 20:07:00,
2013-01-16 14:12:00,38.5,25.4,29.93,SW,225,9.2,9.2,59,0.00,FEW,,0.00,WeatherDisplay:10.37,2013-01-16 20:12:00,
2013-01-16 14:17:00,38.5,25.4,29.93,SE,135,16.1,16.1,59,0.00,FEW,,0.00,WeatherDisplay:10.37,2013-01-16 20:17:00,
2013-01-16 14:22:00,38.3,25.2,29.92,SW,225,13.8,13.8,59,0.00,FEW,,0.00,WeatherDisplay:10.37,2013-01-16 20:22:00,
2013-01-16 14:27:00,38.7,26.0,29.92,SW,225,10.4,10.4,60,0.00,FEW,,0.00,WeatherDisplay:10.37,2013-01-16 20:27:00,
2013-01-16 14:32:00,38.5,25.4,29.92,SW,225,12.7,12.7,59,0.00,FEW,,0.00,WeatherDisplay:10.37,2013-01-16 20:32:00,
2013-01-16 14:37:00,38.5,25.4,29.92,West,270,11.5,11.5,59,0.00,FEW,,0.00,WeatherDisplay:10.37,2013-01-16 20:37:00,
2013-01-16 14:42:00,38.1,25.0,29.92,WSW,248,11.5,11.5,59,0.00,FEW,,0.00,WeatherDisplay:10.37,2013-01-16 20:42:00,
2013-01-16 14:47:00,38.5,25.4,29.92,West,270,8.1,8.1,59,0.00,FEW,,0.00,WeatherDisplay:10.37,2013-01-16 20:47:00,
2013-01-16 14:52:00,38.3,25.2,29.92,NW,315,5.2,7.1,59,0.00,FEW,,0.00,WeatherDisplay:10.37,2013-01-16 20:52:00,
2013-01-16 14:57:00,38.1,25.4,29.92,SW,225,6.9,7.2,60,0.00,FEW,,0.00,WeatherDisplay:10.37,2013-01-16 20:57:00,
2013-01-16 15:02:00,38.3,25.6,29.93,WSW,248,11.5,11.5,60,0.00,BKN,,0.00,WeatherDisplay:10.37,2013-01-16 21:02:00,
2013-01-16 15:07:00,37.9,25.3,29.93,WSW,248,9.2,9.2,60,0.00,BKN,,0.00,WeatherDisplay:10.37,2013-01-16 21:07:00,
2013-01-16 15:12:00,37.6,25.3,29.93,SW,225,6.9,6.9,61,0.00,BKN,,0.00,WeatherDisplay:10.37,2013-01-16 21:12:00,
2013-01-16 15:17:00,37.6,25.7,29.93,WSW,248,8.1,8.1,62,0.00,BKN,,0.00,WeatherDisplay:10.37,2013-01-16 21:17:00,
2013-01-16 15:22:00,37.6,25.7,29.94,WSW,248,11.5,11.5,62,0.00,BKN,,0.00,WeatherDisplay:10.37,2013-01-16 21:22:00,
2013-01-16 15:27:00,37.0,25.2,29.94,WSW,248,9.0,9.0,62,0.00,BKN,,0.00,WeatherDisplay:10.37,2013-01-16 21:27:00,
2013-01-16 15:32:00,37.0,25.6,29.94,SSW,202,4.6,6.1,63,0.00,BKN,,0.00,WeatherDisplay:10.37,2013-01-16 21:32:00,
2013-01-16 15:37:00,37.0,25.6,29.94,WSW,248,4.6,5.5,63,0.00,BKN,,0.00,WeatherDisplay:10.37,2013-01-16 21:37:00,
2013-01-16 15:42:00,37.0,26.0,29.90,SW,225,9.2,9.2,64,0.00,BKN,,0.00,WeatherDisplay:10.37,2013-01-16 21:42:00,
2013-01-16 15:47:00,37.0,26.0,29.90,WSW,248,6.9,6.9,64,0.00,BKN,,0.00,WeatherDisplay:10.37,2013-01-16 21:47:00,
2013-01-16 15:52:00,36.9,25.8,29.90,SSE,158,6.9,6.9,64,0.00,BKN,,0.00,WeatherDisplay:10.37,2013-01-16 21:52:00,
2013-01-16 15:57:00,36.7,26.0,29.90,South,180,13.8,13.8,65,0.00,BKN,,0.00,WeatherDisplay:10.37,2013-01-16 21:57:00,
2013-01-16 16:02:00,36.7,26.0,29.90,West,270,9.2,9.2,65,0.00,OVC,,0.00,WeatherDisplay:10.37,2013-01-16 22:02:00,
2013-01-16 16:07:00,36.9,26.2,29.90,SSE,158,12.7,12.7,65,0.00,OVC,,0.00,WeatherDisplay:10.37,2013-01-16 22:07:00,
2013-01-16 16:12:00,36.7,26.0,29.90,West,270,13.8,13.8,65,0.00,OVC,,0.00,WeatherDisplay:10.37,2013-01-16 22:12:00,
2013-01-16 16:17:00,36.9,26.2,29.90,WSW,248,8.1,8.1,65,0.00,OVC,,0.00,WeatherDisplay:10.37,2013-01-16 22:17:00,
2013-01-16 16:22:00,36.7,26.0,29.90,SSE,158,10.4,10.4,65,0.00,OVC,,0.00,WeatherDisplay:10.37,2013-01-16 22:22:00,
2013-01-16 16:27:00,36.7,26.0,29.90,WSW,248,5.8,5.8,65,0.00,OVC,,0.00,WeatherDisplay:10.37,2013-01-16 22:27:00,
2013-01-16 16:32:00,36.7,26.4,29.90,WSW,248,11.5,11.5,66,0.00,OVC,,0.00,WeatherDisplay:10.37,2013-01-16 22:32:00,
2013-01-16 16:37:00,36.5,26.2,29.90,NE,45,10.4,10.4,66,0.00,OVC,,0.00,WeatherDisplay:10.37,2013-01-16 22:37:00,
2013-01-16 16:42:00,36.5,26.2,29.91,SW,225,9.2,9.2,66,0.00,OVC,,0.00,WeatherDisplay:10.37,2013-01-16 22:42:00,
2013-01-16 16:47:00,36.3,26.4,29.91,West,270,8.1,8.1,67,0.00,OVC,,0.00,WeatherDisplay:10.37,2013-01-16 22:47:00,
2013-01-16 16:52:00,36.3,26.4,29.91,North,0,6.9,6.9,67,0.00,OVC,,0.00,WeatherDisplay:10.37,2013-01-16 22:52:00,
2013-01-16 16:57:00,36.3,26.4,29.91,SW,225,17.3,17.3,67,0.00,OVC,,0.00,WeatherDisplay:10.37,2013-01-16 22:57:00,
2013-01-16 17:02:00,36.5,26.6,29.92,SSE,158,9.2,9.2,67,0.00,OVC,,0.00,WeatherDisplay:10.37,2013-01-16 23:02:00,
2013-01-16 17:07:00,36.3,26.8,29.92,South,180,1.2,5.3,68,0.00,OVC,,0.00,WeatherDisplay:10.37,2013-01-16 23:07:00,
2013-01-16 17:12:00,36.3,26.8,29.92,South,180,16.1,16.1,68,0.00,OVC,,0.00,WeatherDisplay:10.37,2013-01-16 23:12:00,
2013-01-16 17:17:00,36.1,26.6,29.92,South,180,8.1,8.1,68,0.00,OVC,,0.00,WeatherDisplay:10.37,2013-01-16 23:17:00,
2013-01-16 17:22:00,36.3,26.8,29.93,SW,225,7.2,7.2,68,0.00,OVC,,0.00,WeatherDisplay:10.37,2013-01-16 23:22:00,
2013-01-16 17:27:00,36.1,26.6,29.93,WSW,248,1.2,3.5,68,0.00,OVC,,0.00,WeatherDisplay:10.37,2013-01-16 23:27:00,
2013-01-16 17:32:00,36.1,26.9,29.93,WNW,292,9.2,9.2,69,0.00,OVC,,0.00,WeatherDisplay:10.37,2013-01-16 23:32:00,
2013-01-16 17:37:00,36.1,26.9,29.93,South,180,8.1,8.1,69,0.00,OVC,,0.00,WeatherDisplay:10.37,2013-01-16 23:37:00,
2013-01-16 17:42:00,36.1,26.9,29.93,SW,225,5.8,5.8,69,0.00,OVC,,0.00,WeatherDisplay:10.37,2013-01-16 23:42:00,
2013-01-16 17:47:00,36.0,27.1,29.93,NW,315,5.8,5.8,70,0.00,OVC,,0.00,WeatherDisplay:10.37,2013-01-16 23:47:00,
2013-01-16 17:52:00,36.0,27.1,29.93,West,270,11.5,11.5,70,0.00,OVC,,0.00,WeatherDisplay:10.37,2013-01-16 23:52:00,
2013-01-16 17:57:00,36.1,27.3,29.93,South,180,8.9,8.9,70,0.00,OVC,,0.00,WeatherDisplay:10.37,2013-01-16 23:57:00,
2013-01-16 18:02:00,36.0,27.1,29.95,WSW,248,8.1,8.1,70,0.00,OVC,,0.00,WeatherDisplay:10.37,2013-01-17 00:02:00,
2013-01-16 18:07:00,36.1,27.3,29.95,WSW,248,5.8,5.8,70,0.00,OVC,,0.00,WeatherDisplay:10.37,2013-01-17 00:07:00,
2013-01-16 18:12:00,36.0,27.1,29.95,SE,135,10.4,10.4,70,0.00,OVC,,0.00,WeatherDisplay:10.37,2013-01-17 00:12:00,
2013-01-16 18:17:00,36.1,27.6,29.95,WSW,248,4.6,4.6,71,0.00,OVC,,0.00,WeatherDisplay:10.37,2013-01-17 00:17:00,
2013-01-16 18:22:00,36.1,27.6,29.95,West,270,5.8,5.8,71,0.00,OVC,,0.00,WeatherDisplay:10.37,2013-01-17 00:22:00,
2013-01-16 18:27:00,36.1,27.6,29.95,WNW,292,6.9,6.9,71,0.00,OVC,,0.00,WeatherDisplay:10.37,2013-01-17 00:27:00,
2013-01-16 18:32:00,35.8,27.3,29.95,NNW,338,5.8,5.8,71,0.00,OVC,,0.00,WeatherDisplay:10.37,2013-01-17 00:32:00,
2013-01-16 18:37:00,35.8,27.3,29.95,West,270,8.1,8.1,71,0.00,OVC,,0.00,WeatherDisplay:10.37,2013-01-17 00:37:00,
2013-01-16 18:42:00,35.8,27.3,29.96,WSW,248,6.9,6.9,71,0.00,OVC,,0.00,WeatherDisplay:10.37,2013-01-17 00:42:00,
2013-01-16 18:47:00,35.8,27.6,29.96,WSW,248,2.3,3.2,72,0.00,OVC,,0.00,WeatherDisplay:10.37,2013-01-17 00:47:00,
2013-01-16 18:52:00,35.8,27.6,29.96,WNW,292,5.8,5.8,72,0.00,OVC,,0.00,WeatherDisplay:10.37,2013-01-17 00:52:00,
2013-01-16 18:57:00,35.8,27.6,29.96,SE,135,4.6,4.6,72,0.00,OVC,,0.00,WeatherDisplay:10.37,2013-01-17 00:57:00,
2013-01-16 19:02:00,35.8,27.6,29.97,West,270,4.6,4.6,72,0.00,OVC,,0.00,WeatherDisplay:10.37,2013-01-17 01:02:00,
2013-01-16 19:07:00,36.0,27.8,29.97,West,270,5.8,5.8,72,0.00,OVC,,0.00,WeatherDisplay:10.37,2013-01-17 01:07:00,
2013-01-16 19:12:00,35.8,27.6,29.97,WSW,248,8.1,8.1,72,0.00,OVC,,0.00,WeatherDisplay:10.37,2013-01-17 01:12:00,
2013-01-16 19:17:00,35.8,27.6,29.97,WNW,292,9.2,9.2,72,0.00,OVC,,0.00,WeatherDisplay:10.37,2013-01-17 01:17:00,
2013-01-16 19:22:00,35.8,28.0,29.97,WSW,248,4.6,4.6,73,0.00,OVC,,0.00,WeatherDisplay:10.37,2013-01-17 01:22:00,
2013-01-16 19:27:00,35.8,28.0,29.97,SW,225,3.5,3.5,73,0.00,OVC,,0.00,WeatherDisplay:10.37,2013-01-17 01:27:00,
2013-01-16 19:32:00,35.6,27.8,29.97,West,270,3.5,3.5,73,0.00,OVC,,0.00,WeatherDisplay:10.37,2013-01-17 01:32:00,
2013-01-16 19:37:00,35.8,28.0,29.97,NW,315,2.3,2.9,73,0.00,OVC,,0.00,WeatherDisplay:10.37,2013-01-17 01:37:00,
2013-01-16 19:42:00,35.6,28.1,29.98,WSW,248,4.6,4.6,74,0.00,OVC,,0.00,WeatherDisplay:10.37,2013-01-17 01:42:00,
2013-01-16 19:47:00,35.6,28.1,29.98,WNW,292,0.0,2.2,74,0.00,OVC,,0.00,WeatherDisplay:10.37,2013-01-17 01:47:00,
2013-01-16 19:52:00,35.6,28.1,29.98,WNW,292,4.6,4.6,74,0.00,OVC,,0.00,WeatherDisplay:10.37,2013-01-17 01:52:00,
2013-01-16 19:57:00,35.6,28.1,29.98,SW,225,4.0,4.0,74,0.00,OVC,,0.00,WeatherDisplay:10.37,2013-01-17 01:57:00,
2013-01-16 20:02:00,35.8,28.3,29.99,SSW,202,5.8,5.8,74,0.00,OVC,,0.00,WeatherDisplay:10.37,2013-01-17 02:02:00,
2013-01-16 20:07:00,35.6,28.1,29.99,SW,225,3.5,3.5,74,0.00,OVC,,0.00,WeatherDisplay:10.37,2013-01-17 02:07:00,
2013-01-16 20:12:00,35.6,28.1,29.99,SSW,202,4.6,4.6,74,0.00,OVC,,0.00,WeatherDisplay:10.37,2013-01-17 02:12:00,
2013-01-16 20:17:00,35.6,28.1,29.99,WSW,248,2.3,2.5,74,0.00,OVC,,0.00,WeatherDisplay:10.37,2013-01-17 02:17:00,
2013-01-16 20:22:00,35.6,28.1,29.99,West,270,3.9,3.9,74,0.00,OVC,,0.00,WeatherDisplay:10.37,2013-01-17 02:22:00,
2013-01-16 20:27:00,35.6,28.1,29.99,WNW,292,2.3,3.2,74,0.00,OVC,,0.00,WeatherDisplay:10.37,2013-01-17 02:27:00,
2013-01-16 20:32:00,35.6,28.1,29.99,West,270,8.1,8.1,74,0.00,OVC,,0.00,WeatherDisplay:10.37,2013-01-17 02:32:00,
2013-01-16 20:37:00,35.8,28.3,29.99,WNW,292,2.9,3.3,74,0.00,OVC,,0.00,WeatherDisplay:10.37,2013-01-17 02:37:00,
2013-01-16 20:42:00,35.8,28.3,30.00,South,180,3.5,3.5,74,0.00,OVC,,0.00,WeatherDisplay:10.37,2013-01-17 02:42:00,
2013-01-16 20:47:00,35.8,28.3,30.00,West,270,2.3,3.0,74,0.00,OVC,,0.00,WeatherDisplay:10.37,2013-01-17 02:47:00,
2013-01-16 20:53:00,35.8,28.3,30.00,WSW,248,2.3,2.3,74,0.00,OVC,,0.00,WeatherDisplay:10.37,2013-01-17 02:53:00,
2013-01-16 20:58:00,35.8,28.3,30.00,WSW,248,2.3,2.6,74,0.00,OVC,,0.00,WeatherDisplay:10.37,2013-01-17 02:58:00,
2013-01-16 21:03:00,35.8,28.3,30.01,WSW,248,4.9,4.9,74,0.00,OVC,,0.00,WeatherDisplay:10.37,2013-01-17 03:03:00,
2013-01-16 21:08:00,35.8,28.0,30.01,SSW,202,2.3,2.5,73,0.00,OVC,,0.00,WeatherDisplay:10.37,2013-01-17 03:08:00,
2013-01-16 21:13:00,35.8,28.0,30.01,West,270,2.3,2.3,73,0.00,OVC,,0.00,WeatherDisplay:10.37,2013-01-17 03:13:00,
2013-01-16 21:18:00,35.6,28.1,30.01,South,180,2.3,2.3,74,0.00,OVC,,0.00,WeatherDisplay:10.37,2013-01-17 03:18:00,
2013-01-16 21:23:00,35.6,28.1,30.01,WSW,248,4.6,4.6,74,0.00,OVC,,0.00,WeatherDisplay:10.37,2013-01-17 03:23:00,
2013-01-16 21:28:00,35.6,28.1,30.01,South,180,3.5,3.5,74,0.00,OVC,,0.00,WeatherDisplay:10.37,2013-01-17 03:28:00,
2013-01-16 21:33:00,35.6,28.1,30.01,WSW,248,3.5,3.5,74,0.00,OVC,,0.00,WeatherDisplay:10.37,2013-01-17 03:33:00,
2013-01-16 21:38:00,35.6,28.1,30.01,SW,225,1.3,2.3,74,0.00,OVC,,0.00,WeatherDisplay:10.37,2013-01-17 03:38:00,
2013-01-16 21:43:00,35.6,28.1,30.02,West,270,3.5,3.5,74,0.00,OVC,,0.00,WeatherDisplay:10.37,2013-01-17 03:43:00,
2013-01-16 21:48:00,35.6,28.1,30.02,SSW,202,3.5,3.5,74,0.00,OVC,,0.00,WeatherDisplay:10.37,2013-01-17 03:48:00,
2013-01-16 21:53:00,35.6,28.1,30.02,South,180,6.9,6.9,74,0.00,OVC,,0.00,WeatherDisplay:10.37,2013-01-17 03:53:00,
2013-01-16 21:58:00,35.8,28.3,30.02,West,270,3.5,3.5,74,0.00,OVC,,0.00,WeatherDisplay:10.37,2013-01-17 03:58:00,
2013-01-16 22:03:00,35.6,28.1,30.01,WSW,248,5.8,5.8,74,0.00,OVC,,0.00,WeatherDisplay:10.37,2013-01-17 04:03:00,
2013-01-16 22:08:00,35.6,28.1,30.01,WSW,248,1.2,1.8,74,0.00,OVC,,0.00,WeatherDisplay:10.37,2013-01-17 04:08:00,
2013-01-16 22:13:00,35.8,28.3,30.01,WSW,248,3.5,3.5,74,0.00,OVC,,0.00,WeatherDisplay:10.37,2013-01-17 04:13:00,
2013-01-16 22:18:00,35.6,28.1,30.01,SW,225,1.2,1.5,74,0.00,OVC,,0.00,WeatherDisplay:10.37,2013-01-17 04:18:00,
2013-01-16 22:23:00,35.8,28.3,30.01,WSW,248,4.6,4.6,74,0.00,OVC,,0.00,WeatherDisplay:10.37,2013-01-17 04:23:00,
2013-01-16 22:28:00,35.6,28.1,30.01,WNW,292,0.0,1.6,74,0.00,OVC,,0.00,WeatherDisplay:10.37,2013-01-17 04:28:00,
2013-01-16 22:33:00,35.8,28.3,30.01,SW,225,2.3,2.3,74,0.00,OVC,,0.00,WeatherDisplay:10.37,2013-01-17 04:33:00,
2013-01-16 22:38:00,35.8,28.3,30.01,SW,225,1.2,1.2,74,0.00,OVC,,0.00,WeatherDisplay:10.37,2013-01-17 04:38:00,
2013-01-16 22:43:00,35.6,28.1,30.02,South,180,3.5,3.5,74,0.00,OVC,,0.00,WeatherDisplay:10.37,2013-01-17 04:43:00,
2013-01-16 22:48:00,35.4,28.0,30.02,South,180,1.5,1.5,74,0.00,OVC,,0.00,WeatherDisplay:10.37,2013-01-17 04:48:00,
2013-01-16 22:53:00,35.2,27.8,30.02,ENE,68,1.2,1.3,74,0.00,OVC,,0.00,WeatherDisplay:10.37,2013-01-17 04:53:00,
2013-01-16 22:58:00,35.4,28.0,30.02,WSW,248,0.0,0.8,74,0.00,OVC,,0.00,WeatherDisplay:10.37,2013-01-17 04:58:00,
2013-01-16 23:00:00,35.2,27.8,30.02,SW,225,1.2,1.2,74,0.00,OVC,,0.00,WeatherDisplay:10.37,2013-01-17 05:00:00,
2013-01-16 23:01:00,35.1,27.6,30.02,South,180,2.3,2.3,74,0.00,OVC,,0.00,WeatherDisplay:10.37,2013-01-17 05:01:00,
2013-01-16 23:02:00,35.1,27.6,30.02,South,180,2.3,2.3,74,0.00,OVC,,0.00,WeatherDisplay:10.37,2013-01-17 05:02:00,
2013-01-16 23:03:00,35.1,27.6,30.02,WSW,248,2.3,2.3,74,0.00,OVC,,0.00,WeatherDisplay:10.37,2013-01-17 05:03:00,
2013-01-16 23:08:00,34.9,27.8,30.02,SW,225,1.2,1.2,75,0.00,OVC,,0.00,WeatherDisplay:10.37,2013-01-17 05:08:00,
2013-01-16 23:13:00,34.9,27.8,30.02,WSW,248,1.2,1.2,75,0.00,OVC,,0.00,WeatherDisplay:10.37,2013-01-17 05:13:00,
2013-01-16 23:18:00,34.9,27.8,30.02,South,180,2.3,2.3,75,0.00,OVC,,0.00,WeatherDisplay:10.37,2013-01-17 05:18:00,
2013-01-16 23:23:00,34.7,27.6,30.03,SW,225,1.2,1.2,75,0.00,OVC,,0.00,WeatherDisplay:10.37,2013-01-17 05:23:00,
2013-01-16 23:28:00,34.7,27.9,30.03,South,180,1.2,1.2,76,0.00,OVC,,0.00,WeatherDisplay:10.37,2013-01-17 05:28:00,
2013-01-16 23:33:00,34.3,27.6,30.03,South,180,0.0,0.3,76,0.00,OVC,,0.00,WeatherDisplay:10.37,2013-01-17 05:33:00,
2013-01-16 23:38:00,34.2,27.4,30.03,SE,135,0.0,0.2,76,0.00,OVC,,0.00,WeatherDisplay:10.37,2013-01-17 05:38:00,
2013-01-16 23:43:00,34.3,27.6,30.04,South,180,1.2,1.2,76,0.00,OVC,,0.00,WeatherDisplay:10.37,2013-01-17 05:43:00,
2013-01-16 23:48:00,34.3,27.9,30.04,South,180,0.0,0.2,77,0.00,OVC,,0.00,WeatherDisplay:10.37,2013-01-17 05:48:00,
2013-01-16 23:53:00,34.2,27.7,30.04,South,180,1.2,1.2,77,0.00,OVC,,0.00,WeatherDisplay:10.37,2013-01-17 05:53:00,
2013-01-16 23:58:00,34.2,27.7,30.04,SSW,202,0.0,0.1,77,0.00,OVC,,0.00,WeatherDisplay:10.37,2013-01-17 05:58:00,